Preview of NWS' New Version of Forecast
This preview is not operational and should not be used for support decisions.

Regional Weather Roundup (RWR)

Issued by National Weather Service (NWS)

                            
000
ASCA42 TJSJ 181910
RWRPR 
PUERTO RICO/U.S. VIRGIN ISLANDS HOURLY WEATHER ROUNDUP
NATIONAL WEATHER SERVICE SAN JUAN PR
300 PM AST MON FEB 18 2019

PRZ001>002-007>008-010-182000-
PUERTO RICO
  
CITY           SKY/WX    TMP DP  RH WIND       PRES   REMARKS
SAN JUAN LMM   LGT RAIN  75  72  88 E12       30.11S                  
AGUADILLA      SUNNY     84  73  70 E20G30    30.09F HX  91           
$$

VIZ001>002-182000-
U.S. VIRGIN ISLANDS
  
CITY           SKY/WX    TMP DP  RH WIND       PRES   REMARKS
CHARLOTTE AMA  MOSUNNY   84  66  54 E18G24    30.08F                  
CHRISTIANSTED  PTSUNNY   84  70  61 E17G26    30.09F                  
$$

HOURLY WEATHER ROUNDUP FOR THE NEWS MEDIA
  
CITY           SKY/WX    TMP DP  RH WIND       PRES   REMARKS
ORLANDO        PTSUNNY   84  69  60 S9        30.09F                  
NEW YORK       PTSUNNY   41  35  79 W18G26    29.87R                  
NEWARK         PTSUNNY   43  34  70 W17G25    29.87R                  
CHICAGO        PTSUNNY   27  17  66 N10       30.35R WCI  17          
HARTFORD       FLURRIES  34  34 100 VRB3      29.79R                  
BOSTON         LGT SNOW  29  25  85 N12       29.83  FOG     WCI  19  
DALLAS         CLOUDY    43  23  45 NE8       30.33F                  
PHILADELPHIA   PTSUNNY   44  29  55 NW22G32   29.95R                  
LOS ANGELES    MOSUNNY   54  29  38 SE6       30.06S                  
WASHINGTON DC  PTSUNNY   45  28  51 NW25G32   30.04R